Time,TemperatureF,DewpointF,PressureIn,WindDirection,WindDirectionDegrees,WindSpeedMPH,WindSpeedGustMPH,Humidity,HourlyPrecipIn,Conditions,Clouds,dailyrainin,SolarRadiationWatts/m^2,SoftwareType,DateUTC
2013-04-16 00:22:00,51.0,44.0,-100.00,South,181,2.0,4.0,78,0.00,,,0.00,0.000000,,2013-04-16 10:22:00,
2013-04-16 00:32:00,51.0,44.0,-100.00,South,181,2.0,4.0,78,0.00,,,0.00,0.000000,,2013-04-16 10:32:00,
2013-04-16 00:42:00,51.0,44.0,-100.00,South,181,2.0,4.0,78,0.00,,,0.00,0.000000,,2013-04-16 10:42:00,
2013-04-16 00:52:00,51.0,44.0,-100.00,South,181,2.0,4.0,78,0.00,,,0.00,0.000000,,2013-04-16 10:52:00,
2013-04-16 01:22:00,49.0,39.0,-100.00,SE,129,4.0,5.0,69,0.00,,,0.00,0.000000,,2013-04-16 11:22:00,
2013-04-16 01:32:00,49.0,39.0,-100.00,SE,129,4.0,5.0,69,0.00,,,0.00,0.000000,,2013-04-16 11:32:00,
2013-04-16 01:42:00,49.0,39.0,-100.00,SE,129,4.0,5.0,69,0.00,,,0.00,0.000000,,2013-04-16 11:42:00,
2013-04-16 01:52:00,49.0,39.0,-100.00,SE,129,4.0,5.0,69,0.00,,,0.00,0.000000,,2013-04-16 11:52:00,
2013-04-16 02:22:00,48.0,36.0,-100.00,ESE,122,4.0,5.0,62,0.00,,,0.00,0.000000,,2013-04-16 12:22:00,
2013-04-16 02:32:00,48.0,36.0,-100.00,ESE,122,4.0,5.0,62,0.00,,,0.00,0.000000,,2013-04-16 12:32:00,
2013-04-16 02:42:00,48.0,36.0,-100.00,ESE,122,4.0,5.0,62,0.00,,,0.00,0.000000,,2013-04-16 12:42:00,
2013-04-16 02:52:00,48.0,36.0,-100.00,ESE,122,4.0,5.0,62,0.00,,,0.00,0.000000,,2013-04-16 12:52:00,
2013-04-16 03:22:00,51.0,32.0,-100.00,South,173,4.0,7.0,48,0.00,,,0.00,0.000000,,2013-04-16 13:22:00,
2013-04-16 03:32:00,51.0,32.0,-100.00,South,173,4.0,7.0,48,0.00,,,0.00,0.000000,,2013-04-16 13:32:00,
2013-04-16 03:42:00,51.0,32.0,-100.00,South,173,4.0,7.0,48,0.00,,,0.00,0.000000,,2013-04-16 13:42:00,
2013-04-16 03:52:00,51.0,32.0,-100.00,South,173,4.0,7.0,48,0.00,,,0.00,0.000000,,2013-04-16 13:52:00,
2013-04-16 04:22:00,53.0,52.0,-100.00,West,280,1.0,12.0,95,0.00,,,0.00,0.000000,,2013-04-16 14:22:00,
2013-04-16 04:32:00,53.0,52.0,-100.00,West,280,1.0,12.0,95,0.00,,,0.00,0.000000,,2013-04-16 14:32:00,
2013-04-16 04:42:00,53.0,52.0,-100.00,West,280,1.0,12.0,95,0.00,,,0.00,0.000000,,2013-04-16 14:42:00,
2013-04-16 04:52:00,53.0,52.0,-100.00,West,280,1.0,12.0,95,0.00,,,0.00,0.000000,,2013-04-16 14:52:00,
2013-04-16 05:22:00,53.0,51.0,-100.00,WNW,287,2.0,6.0,94,0.00,,,0.00,0.000000,,2013-04-16 15:22:00,
2013-04-16 05:32:00,53.0,51.0,-100.00,WNW,287,2.0,6.0,94,0.00,,,0.00,0.000000,,2013-04-16 15:32:00,
2013-04-16 05:43:00,53.0,51.0,-100.00,WNW,287,2.0,6.0,94,0.00,,,0.00,0.000000,,2013-04-16 15:43:00,
2013-04-16 05:52:00,53.0,51.0,-100.00,WNW,287,2.0,6.0,94,0.00,,,0.00,0.000000,,2013-04-16 15:52:00,
2013-04-16 06:23:00,47.0,41.0,-100.00,SE,132,2.0,9.0,79,0.00,,,0.00,0.000000,,2013-04-16 16:23:00,
2013-04-16 06:32:00,47.0,41.0,-100.00,SE,132,2.0,9.0,79,0.00,,,0.00,0.000000,,2013-04-16 16:32:00,
2013-04-16 06:42:00,47.0,41.0,-100.00,SE,132,2.0,9.0,79,0.00,,,0.00,0.000000,,2013-04-16 16:42:00,
2013-04-16 06:52:00,47.0,41.0,-100.00,SE,132,2.0,9.0,79,0.00,,,0.00,0.000000,,2013-04-16 16:52:00,
2013-04-16 07:22:00,58.0,34.0,-100.00,SE,127,6.0,10.0,40,0.00,,,0.00,73.000000,,2013-04-16 17:22:00,
2013-04-16 07:32:00,58.0,34.0,-100.00,SE,127,6.0,10.0,40,0.00,,,0.00,73.000000,,2013-04-16 17:32:00,
2013-04-16 07:43:00,58.0,34.0,-100.00,SE,127,6.0,10.0,40,0.00,,,0.00,73.000000,,2013-04-16 17:43:00,
2013-04-16 07:52:00,58.0,34.0,-100.00,SE,127,6.0,10.0,40,0.00,,,0.00,73.000000,,2013-04-16 17:52:00,
2013-04-16 08:22:00,65.0,40.0,-100.00,WSW,254,3.0,7.0,40,0.00,,,0.00,346.000000,,2013-04-16 18:22:00,
2013-04-16 08:32:00,65.0,40.0,-100.00,WSW,254,3.0,7.0,40,0.00,,,0.00,346.000000,,2013-04-16 18:32:00,
2013-04-16 08:42:00,65.0,40.0,-100.00,WSW,254,3.0,7.0,40,0.00,,,0.00,346.000000,,2013-04-16 18:42:00,
2013-04-16 08:52:00,65.0,40.0,-100.00,WSW,254,3.0,7.0,40,0.00,,,0.00,346.000000,,2013-04-16 18:52:00,
2013-04-16 09:22:00,68.0,43.0,-100.00,West,272,3.0,9.0,41,0.00,,,0.00,606.000000,,2013-04-16 19:22:00,
2013-04-16 09:32:00,68.0,43.0,-100.00,West,272,3.0,9.0,41,0.00,,,0.00,606.000000,,2013-04-16 19:32:00,
2013-04-16 09:42:00,68.0,43.0,-100.00,West,272,3.0,9.0,41,0.00,,,0.00,606.000000,,2013-04-16 19:42:00,
2013-04-16 09:52:00,68.0,43.0,-100.00,West,272,3.0,9.0,41,0.00,,,0.00,606.000000,,2013-04-16 19:52:00,
2013-04-16 10:22:00,71.0,44.0,-100.00,NW,305,6.0,16.0,38,0.00,,,0.00,824.000000,,2013-04-16 20:22:00,
2013-04-16 10:32:00,71.0,44.0,-100.00,NW,305,6.0,16.0,38,0.00,,,0.00,824.000000,,2013-04-16 20:32:00,
2013-04-16 10:42:00,71.0,44.0,-100.00,NW,305,6.0,16.0,38,0.00,,,0.00,824.000000,,2013-04-16 20:42:00,
2013-04-16 10:51:00,71.0,44.0,-100.00,NW,305,6.0,16.0,38,0.00,,,0.00,824.000000,,2013-04-16 20:51:00,
2013-04-16 11:22:00,69.0,51.0,-100.00,NNW,348,8.0,17.0,53,0.00,,,0.00,982.000000,,2013-04-16 21:22:00,
2013-04-16 11:32:00,69.0,51.0,-100.00,NNW,348,8.0,17.0,53,0.00,,,0.00,982.000000,,2013-04-16 21:32:00,
2013-04-16 11:42:00,69.0,51.0,-100.00,NNW,348,8.0,17.0,53,0.00,,,0.00,982.000000,,2013-04-16 21:42:00,
2013-04-16 11:52:00,69.0,51.0,-100.00,NNW,348,8.0,17.0,53,0.00,,,0.00,982.000000,,2013-04-16 21:52:00,
2013-04-16 12:22:00,69.0,55.0,-100.00,North,357,8.0,18.0,60,0.00,,,0.00,1029.000000,,2013-04-16 22:22:00,
2013-04-16 12:32:00,69.0,55.0,-100.00,North,357,8.0,18.0,60,0.00,,,0.00,1029.000000,,2013-04-16 22:32:00,
2013-04-16 12:42:00,69.0,55.0,-100.00,North,357,8.0,18.0,60,0.00,,,0.00,1029.000000,,2013-04-16 22:42:00,
2013-04-16 12:52:00,69.0,55.0,-100.00,North,357,8.0,18.0,60,0.00,,,0.00,1029.000000,,2013-04-16 22:52:00,
2013-04-16 13:22:00,71.0,52.0,-100.00,North,1,7.0,19.0,52,0.00,,,0.00,1001.000000,,2013-04-16 23:22:00,
2013-04-16 13:32:00,71.0,52.0,-100.00,North,1,7.0,19.0,52,0.00,,,0.00,1001.000000,,2013-04-16 23:32:00,
2013-04-16 13:42:00,71.0,52.0,-100.00,North,1,7.0,19.0,52,0.00,,,0.00,1001.000000,,2013-04-16 23:42:00,
2013-04-16 13:52:00,71.0,52.0,-100.00,North,1,7.0,19.0,52,0.00,,,0.00,1001.000000,,2013-04-16 23:52:00,
2013-04-16 14:22:00,72.0,53.0,-100.00,North,356,9.0,17.0,51,0.00,,,0.00,932.000000,,2013-04-17 00:22:00,
2013-04-16 14:32:00,72.0,53.0,-100.00,North,356,9.0,17.0,51,0.00,,,0.00,932.000000,,2013-04-17 00:32:00,
2013-04-16 14:42:00,72.0,53.0,-100.00,North,356,9.0,17.0,51,0.00,,,0.00,932.000000,,2013-04-17 00:42:00,
2013-04-16 14:52:00,72.0,53.0,-100.00,North,356,9.0,17.0,51,0.00,,,0.00,932.000000,,2013-04-17 00:52:00,
2013-04-16 15:22:00,71.0,54.0,-100.00,NNW,343,9.0,24.0,55,0.00,,,0.00,780.000000,,2013-04-17 01:22:00,
2013-04-16 15:32:00,71.0,54.0,-100.00,NNW,343,9.0,24.0,55,0.00,,,0.00,780.000000,,2013-04-17 01:32:00,
2013-04-16 15:42:00,71.0,54.0,-100.00,NNW,343,9.0,24.0,55,0.00,,,0.00,780.000000,,2013-04-17 01:42:00,
2013-04-16 15:52:00,71.0,54.0,-100.00,NNW,343,9.0,24.0,55,0.00,,,0.00,780.000000,,2013-04-17 01:52:00,
2013-04-16 16:22:00,65.0,51.0,-100.00,North,357,8.0,16.0,60,0.00,,,0.00,463.000000,,2013-04-17 02:22:00,
2013-04-16 16:32:00,65.0,51.0,-100.00,North,357,8.0,16.0,60,0.00,,,0.00,463.000000,,2013-04-17 02:32:00,
2013-04-16 16:42:00,65.0,51.0,-100.00,North,357,8.0,16.0,60,0.00,,,0.00,463.000000,,2013-04-17 02:42:00,
2013-04-16 16:52:00,65.0,51.0,-100.00,North,357,8.0,16.0,60,0.00,,,0.00,463.000000,,2013-04-17 02:52:00,
2013-04-16 17:22:00,64.0,54.0,-100.00,North,355,7.0,14.0,69,0.00,,,0.00,302.000000,,2013-04-17 03:22:00,
2013-04-16 17:32:00,64.0,54.0,-100.00,North,355,7.0,14.0,69,0.00,,,0.00,302.000000,,2013-04-17 03:32:00,
2013-04-16 17:42:00,64.0,54.0,-100.00,North,355,7.0,14.0,69,0.00,,,0.00,302.000000,,2013-04-17 03:42:00,
2013-04-16 17:53:00,64.0,54.0,-100.00,North,355,7.0,14.0,69,0.00,,,0.00,302.000000,,2013-04-17 03:53:00,
2013-04-16 18:22:00,62.0,54.0,-100.00,North,352,7.0,14.0,75,0.00,,,0.00,213.000000,,2013-04-17 04:22:00,
2013-04-16 18:33:00,62.0,54.0,-100.00,North,352,7.0,14.0,75,0.00,,,0.00,213.000000,,2013-04-17 04:33:00,
2013-04-16 18:42:00,62.0,54.0,-100.00,North,352,7.0,14.0,75,0.00,,,0.00,213.000000,,2013-04-17 04:42:00,
2013-04-16 18:52:00,62.0,54.0,-100.00,North,352,7.0,14.0,75,0.00,,,0.00,213.000000,,2013-04-17 04:52:00,
2013-04-16 19:22:00,59.0,55.0,-100.00,North,352,5.0,12.0,87,0.00,,,0.00,21.000000,,2013-04-17 05:22:00,
2013-04-16 19:32:00,59.0,55.0,-100.00,North,352,5.0,12.0,87,0.00,,,0.00,21.000000,,2013-04-17 05:32:00,
2013-04-16 19:42:00,59.0,55.0,-100.00,North,352,5.0,12.0,87,0.00,,,0.00,21.000000,,2013-04-17 05:42:00,
2013-04-16 19:52:00,59.0,55.0,-100.00,North,352,5.0,12.0,87,0.00,,,0.00,21.000000,,2013-04-17 05:52:00,
2013-04-16 20:22:00,58.0,56.0,-100.00,NNE,16,5.0,11.0,92,0.00,,,0.00,0.000000,,2013-04-17 06:22:00,
2013-04-16 20:32:00,58.0,56.0,-100.00,NNE,16,5.0,11.0,92,0.00,,,0.00,0.000000,,2013-04-17 06:32:00,
2013-04-16 20:42:00,58.0,56.0,-100.00,NNE,16,5.0,11.0,92,0.00,,,0.00,0.000000,,2013-04-17 06:42:00,
2013-04-16 20:52:00,58.0,56.0,-100.00,NNE,16,5.0,11.0,92,0.00,,,0.00,0.000000,,2013-04-17 06:52:00,
2013-04-16 21:22:00,54.0,52.0,-100.00,NW,309,1.0,8.0,94,0.00,,,0.00,0.000000,,2013-04-17 07:22:00,
2013-04-16 21:32:00,54.0,52.0,-100.00,NW,309,1.0,8.0,94,0.00,,,0.00,0.000000,,2013-04-17 07:32:00,
2013-04-16 21:42:00,54.0,52.0,-100.00,NW,309,1.0,8.0,94,0.00,,,0.00,0.000000,,2013-04-17 07:42:00,
2013-04-16 21:52:00,54.0,52.0,-100.00,NW,309,1.0,8.0,94,0.00,,,0.00,0.000000,,2013-04-17 07:52:00,
2013-04-16 22:22:00,55.0,54.0,-100.00,North,7,2.0,8.0,97,0.00,,,-99.99,0.000000,,2013-04-17 08:22:00,
2013-04-16 22:32:00,55.0,54.0,-100.00,North,7,2.0,8.0,97,0.00,,,-99.99,0.000000,,2013-04-17 08:32:00,
2013-04-16 22:42:00,55.0,54.0,-100.00,North,7,2.0,8.0,97,0.00,,,-99.99,0.000000,,2013-04-17 08:42:00,
2013-04-16 22:52:00,55.0,54.0,-100.00,North,7,2.0,8.0,97,0.00,,,-99.99,0.000000,,2013-04-17 08:52:00,
2013-04-16 23:22:00,50.0,49.0,-100.00,SE,134,4.0,5.0,95,0.00,,,0.00,0.000000,,2013-04-17 09:22:00,
2013-04-16 23:33:00,50.0,49.0,-100.00,SE,134,4.0,5.0,95,0.00,,,0.00,0.000000,,2013-04-17 09:33:00,
2013-04-16 23:42:00,50.0,49.0,-100.00,SE,134,4.0,5.0,95,0.00,,,0.00,0.000000,,2013-04-17 09:42:00,
2013-04-16 23:52:00,50.0,49.0,-100.00,SE,134,4.0,5.0,95,0.00,,,0.00,0.000000,,2013-04-17 09:52:00,